Time,TemperatureF,DewpointF,PressureIn,WindDirection,WindDirectionDegrees,WindSpeedMPH,WindSpeedGustMPH,Humidity,HourlyPrecipIn,Conditions,Clouds,dailyrainin,SoftwareType,DateUTC
2013-03-08 00:00:00,29.1,23.3,0.00,NW,315,0.0,0.0,79,0.00,,,0.00,WUHU216HW,2013-03-08 05:00:00,
2013-03-08 00:02:00,29.1,23.3,0.00,NW,315,0.0,0.0,79,0.00,,,0.00,WUHU216HW,2013-03-08 05:02:00,
2013-03-08 00:07:00,28.9,23.2,0.00,NW,315,0.0,0.0,79,0.00,,,0.00,WUHU216HW,2013-03-08 05:07:00,
2013-03-08 00:12:00,28.9,23.2,0.00,NW,315,0.0,0.0,79,0.00,,,0.00,WUHU216HW,2013-03-08 05:12:00,
2013-03-08 00:17:00,28.7,23.0,0.00,NW,315,0.0,0.0,79,0.00,,,0.00,WUHU216HW,2013-03-08 05:17:00,
2013-03-08 00:22:00,28.5,22.8,0.00,NW,315,0.0,0.0,79,0.00,,,0.00,WUHU216HW,2013-03-08 05:22:00,
2013-03-08 00:27:00,28.5,22.8,0.00,NW,315,0.0,0.0,79,0.00,,,0.00,WUHU216HW,2013-03-08 05:27:00,
2013-03-08 00:32:00,28.4,22.6,0.00,NW,315,0.0,0.0,79,0.00,,,0.00,WUHU216HW,2013-03-08 05:32:00,
2013-03-08 00:37:00,28.2,22.6,0.00,NW,315,0.0,0.0,79,0.00,,,0.00,WUHU216HW,2013-03-08 05:37:00,
2013-03-08 00:42:00,28.2,22.5,0.00,NW,315,0.0,0.0,79,0.00,,,0.00,WUHU216HW,2013-03-08 05:42:00,
2013-03-08 00:47:00,28.2,22.5,0.00,NW,315,0.0,0.0,79,0.00,,,0.00,WUHU216HW,2013-03-08 05:47:00,
2013-03-08 00:52:00,28.0,22.3,0.00,NW,315,0.0,0.0,79,0.00,,,0.00,WUHU216HW,2013-03-08 05:52:00,
2013-03-08 00:57:00,28.0,22.3,0.00,NW,315,0.0,0.0,79,0.00,,,0.00,WUHU216HW,2013-03-08 05:57:00,
2013-03-08 01:02:00,28.0,22.3,0.00,NW,315,0.0,0.0,79,0.00,,,0.00,WUHU216HW,2013-03-08 06:02:00,
2013-03-08 01:07:00,27.6,21.9,0.00,NW,315,0.0,0.0,79,0.00,,,0.00,WUHU216HW,2013-03-08 06:07:00,
2013-03-08 01:12:00,27.5,21.7,0.00,NW,315,0.0,0.0,79,0.00,,,0.00,WUHU216HW,2013-03-08 06:12:00,
2013-03-08 01:17:00,27.5,21.7,0.00,NW,315,0.0,0.0,79,0.00,,,0.00,WUHU216HW,2013-03-08 06:17:00,
2013-03-08 01:22:00,27.3,21.6,0.00,NW,315,0.0,0.0,79,0.00,,,0.00,WUHU216HW,2013-03-08 06:22:00,
2013-03-08 01:27:00,27.3,21.6,0.00,NW,315,0.0,0.0,79,0.00,,,0.00,WUHU216HW,2013-03-08 06:27:00,
2013-03-08 01:32:00,27.3,21.6,0.00,NW,315,0.0,0.0,79,0.00,,,0.00,WUHU216HW,2013-03-08 06:32:00,
2013-03-08 01:37:00,27.1,21.7,0.00,NW,315,0.0,0.0,80,0.00,,,0.00,WUHU216HW,2013-03-08 06:37:00,
2013-03-08 01:42:00,27.1,21.7,0.00,NW,315,0.0,0.0,80,0.00,,,0.00,WUHU216HW,2013-03-08 06:42:00,
2013-03-08 01:47:00,26.9,21.5,0.00,NW,315,0.0,0.0,80,0.00,,,0.00,WUHU216HW,2013-03-08 06:47:00,
2013-03-08 01:52:00,26.9,21.5,0.00,NW,315,0.0,0.0,80,0.00,,,0.00,WUHU216HW,2013-03-08 06:52:00,
2013-03-08 01:57:00,26.7,21.3,0.00,NW,315,0.0,0.0,80,0.00,,,0.00,WUHU216HW,2013-03-08 06:57:00,
2013-03-08 02:02:00,26.6,21.3,0.00,NW,315,0.0,0.0,80,0.00,,,0.00,WUHU216HW,2013-03-08 07:02:00,
2013-03-08 02:07:00,26.6,21.2,0.00,NW,315,0.0,0.0,80,0.00,,,0.00,WUHU216HW,2013-03-08 07:07:00,
2013-03-08 02:12:00,26.4,21.0,0.00,NW,315,0.0,0.0,80,0.00,,,0.00,WUHU216HW,2013-03-08 07:12:00,
2013-03-08 02:17:00,26.6,21.2,0.00,NW,315,0.0,0.0,80,0.00,,,0.00,WUHU216HW,2013-03-08 07:17:00,
2013-03-08 02:22:00,26.4,21.0,0.00,NW,315,0.0,0.0,80,0.00,,,0.00,WUHU216HW,2013-03-08 07:22:00,
2013-03-08 02:27:00,26.4,21.0,0.00,NW,315,0.0,0.0,80,0.00,,,0.00,WUHU216HW,2013-03-08 07:27:00,
2013-03-08 02:32:00,26.4,21.0,0.00,NW,315,0.0,0.0,80,0.00,,,0.00,WUHU216HW,2013-03-08 07:32:00,
2013-03-08 02:37:00,26.4,21.3,0.00,NW,315,0.0,0.0,81,0.00,,,0.00,WUHU216HW,2013-03-08 07:37:00,
2013-03-08 02:42:00,26.4,21.3,0.00,NW,315,0.0,0.0,81,0.00,,,0.00,WUHU216HW,2013-03-08 07:42:00,
2013-03-08 02:47:00,26.4,21.3,0.00,NW,315,0.0,0.0,81,0.00,,,0.00,WUHU216HW,2013-03-08 07:47:00,
2013-03-08 02:52:00,26.4,21.3,0.00,NW,315,0.0,0.0,81,0.00,,,0.00,WUHU216HW,2013-03-08 07:52:00,
2013-03-08 02:57:00,26.4,21.3,0.00,NW,315,0.0,0.0,81,0.00,,,0.00,WUHU216HW,2013-03-08 07:57:00,
2013-03-08 03:02:00,26.2,21.1,0.00,NW,315,0.0,0.0,81,0.00,,,0.00,WUHU216HW,2013-03-08 08:02:00,
2013-03-08 03:07:00,26.2,21.1,0.00,NW,315,0.0,0.0,81,0.00,,,0.00,WUHU216HW,2013-03-08 08:07:00,
2013-03-08 03:12:00,26.0,20.9,0.00,NW,315,0.0,0.0,81,0.00,,,0.00,WUHU216HW,2013-03-08 08:12:00,
2013-03-08 03:17:00,25.8,20.8,0.00,NW,315,0.0,0.0,81,0.00,,,0.00,WUHU216HW,2013-03-08 08:17:00,
2013-03-08 03:22:00,25.8,20.8,0.00,NW,315,0.0,0.0,81,0.00,,,0.00,WUHU216HW,2013-03-08 08:22:00,
2013-03-08 03:27:00,25.8,20.8,0.00,NW,315,0.0,0.0,81,0.00,,,0.00,WUHU216HW,2013-03-08 08:27:00,
2013-03-08 03:32:00,25.8,20.8,0.00,NW,315,0.0,0.0,81,0.00,,,0.00,WUHU216HW,2013-03-08 08:32:00,
2013-03-08 03:37:00,25.8,20.8,0.00,NW,315,0.0,0.0,81,0.00,,,0.00,WUHU216HW,2013-03-08 08:37:00,
2013-03-08 03:42:00,25.8,20.8,0.00,NW,315,0.0,0.0,81,0.00,,,0.00,WUHU216HW,2013-03-08 08:42:00,
2013-03-08 03:47:00,25.8,20.8,0.00,NW,315,0.0,0.0,81,0.00,,,0.00,WUHU216HW,2013-03-08 08:47:00,
2013-03-08 03:52:00,25.7,20.6,0.00,NW,315,0.0,0.0,81,0.00,,,0.00,WUHU216HW,2013-03-08 08:52:00,
2013-03-08 03:57:00,25.7,20.6,0.00,NW,315,0.0,0.0,81,0.00,,,0.00,WUHU216HW,2013-03-08 08:57:00,
2013-03-08 04:02:00,25.7,20.6,0.00,NW,315,0.0,0.0,81,0.00,,,0.00,WUHU216HW,2013-03-08 09:02:00,
2013-03-08 04:07:00,25.7,20.6,0.00,NW,315,0.0,0.0,81,0.00,,,0.00,WUHU216HW,2013-03-08 09:07:00,
2013-03-08 04:12:00,25.8,20.8,0.00,NW,315,0.0,0.0,81,0.00,,,0.00,WUHU216HW,2013-03-08 09:12:00,
2013-03-08 04:17:00,25.7,20.6,0.00,NW,315,0.0,0.0,81,0.00,,,0.00,WUHU216HW,2013-03-08 09:17:00,
2013-03-08 04:22:00,25.5,20.4,0.00,NW,315,0.0,0.0,81,0.00,,,0.00,WUHU216HW,2013-03-08 09:22:00,
2013-03-08 04:27:00,25.5,20.4,0.00,NW,315,0.0,0.0,81,0.00,,,0.00,WUHU216HW,2013-03-08 09:27:00,
2013-03-08 04:32:00,25.5,20.4,0.00,NW,315,0.0,0.0,81,0.00,,,0.00,WUHU216HW,2013-03-08 09:32:00,
2013-03-08 04:37:00,25.3,20.3,0.00,NW,315,0.0,0.0,81,0.00,,,0.00,WUHU216HW,2013-03-08 09:37:00,
2013-03-08 04:42:00,25.3,20.6,0.00,NW,315,0.0,0.0,82,0.00,,,0.00,WUHU216HW,2013-03-08 09:42:00,
2013-03-08 04:47:00,25.3,20.6,0.00,NW,315,0.0,0.0,82,0.00,,,0.00,WUHU216HW,2013-03-08 09:47:00,
2013-03-08 04:52:00,25.3,20.6,0.00,NW,315,0.0,0.0,82,0.00,,,0.00,WUHU216HW,2013-03-08 09:52:00,
2013-03-08 04:57:00,25.3,20.6,0.00,NW,315,0.0,0.0,82,0.00,,,0.00,WUHU216HW,2013-03-08 09:57:00,
2013-03-08 05:02:00,25.3,20.6,0.00,NW,315,0.0,0.0,82,0.00,,,0.00,WUHU216HW,2013-03-08 10:02:00,
2013-03-08 05:07:00,25.3,20.6,0.00,NW,315,0.0,0.0,82,0.00,,,0.00,WUHU216HW,2013-03-08 10:07:00,
2013-03-08 05:12:00,25.3,20.6,0.00,NW,315,0.0,0.0,82,0.00,,,0.00,WUHU216HW,2013-03-08 10:12:00,
2013-03-08 05:17:00,25.3,20.6,0.00,NW,315,0.0,0.0,82,0.00,,,0.00,WUHU216HW,2013-03-08 10:17:00,
2013-03-08 05:22:00,25.3,20.6,0.00,NW,315,0.0,0.0,82,0.00,,,0.00,WUHU216HW,2013-03-08 10:22:00,
2013-03-08 05:27:00,25.1,20.4,0.00,NW,315,0.0,0.0,82,0.00,,,0.00,WUHU216HW,2013-03-08 10:27:00,
2013-03-08 05:32:00,25.1,20.4,0.00,NW,315,0.0,0.0,82,0.00,,,0.00,WUHU216HW,2013-03-08 10:32:00,
2013-03-08 05:36:00,25.1,20.4,0.00,NW,315,0.0,0.0,82,0.00,,,0.00,WUHU216HW,2013-03-08 10:36:00,
2013-03-08 05:41:00,25.1,20.4,0.00,NW,315,0.0,0.0,82,0.00,,,0.00,WUHU216HW,2013-03-08 10:41:00,
2013-03-08 05:46:00,25.1,20.4,0.00,NW,315,0.0,0.0,82,0.00,,,0.00,WUHU216HW,2013-03-08 10:46:00,
2013-03-08 05:51:00,25.1,20.4,0.00,NW,315,0.0,0.0,82,0.00,,,0.00,WUHU216HW,2013-03-08 10:51:00,
2013-03-08 05:56:00,25.1,20.4,0.00,NW,315,0.0,0.0,82,0.00,,,0.00,WUHU216HW,2013-03-08 10:56:00,
2013-03-08 06:01:00,25.1,20.4,0.00,NW,315,0.0,0.0,82,0.00,,,0.00,WUHU216HW,2013-03-08 11:01:00,
2013-03-08 06:06:00,24.9,20.2,0.00,NW,315,0.0,0.0,82,0.00,,,0.00,WUHU216HW,2013-03-08 11:06:00,
2013-03-08 06:11:00,24.9,20.2,0.00,NW,315,0.0,0.0,82,0.00,,,0.00,WUHU216HW,2013-03-08 11:11:00,
2013-03-08 06:16:00,24.9,20.2,0.00,NW,315,0.0,0.0,82,0.00,,,0.00,WUHU216HW,2013-03-08 11:16:00,
2013-03-08 06:21:00,24.9,20.2,0.00,NW,315,0.0,0.0,82,0.00,,,0.00,WUHU216HW,2013-03-08 11:21:00,
2013-03-08 06:26:00,24.9,20.2,0.00,NW,315,0.0,0.0,82,0.00,,,0.00,WUHU216HW,2013-03-08 11:26:00,
2013-03-08 06:31:00,24.9,20.2,0.00,NW,315,0.0,0.0,82,0.00,,,0.00,WUHU216HW,2013-03-08 11:31:00,
2013-03-08 06:36:00,24.8,20.1,0.00,NW,315,0.0,0.0,82,0.00,,,0.00,WUHU216HW,2013-03-08 11:36:00,
2013-03-08 06:41:00,24.8,20.1,0.00,NW,315,0.0,0.0,82,0.00,,,0.00,WUHU216HW,2013-03-08 11:41:00,
2013-03-08 06:46:00,24.6,19.9,0.00,NW,315,0.0,0.0,82,0.00,,,0.00,WUHU216HW,2013-03-08 11:46:00,
2013-03-08 06:51:00,24.6,19.9,0.00,NW,315,0.0,0.0,82,0.00,,,0.00,WUHU216HW,2013-03-08 11:51:00,
2013-03-08 06:56:00,24.6,19.9,0.00,NW,315,0.0,0.0,82,0.00,,,0.00,WUHU216HW,2013-03-08 11:56:00,
2013-03-08 07:01:00,24.6,19.9,0.00,NW,315,0.0,0.0,82,0.00,,,0.00,WUHU216HW,2013-03-08 12:01:00,
2013-03-08 07:06:00,24.6,20.2,0.00,NW,315,0.0,0.0,83,0.00,,,0.00,WUHU216HW,2013-03-08 12:06:00,
2013-03-08 07:11:00,24.6,20.2,0.00,NW,315,0.0,0.0,83,0.00,,,0.00,WUHU216HW,2013-03-08 12:11:00,
2013-03-08 07:16:00,24.6,20.2,0.00,NW,315,0.0,0.0,83,0.00,,,0.00,WUHU216HW,2013-03-08 12:16:00,
2013-03-08 07:21:00,24.6,20.2,0.00,NW,315,0.0,0.0,83,0.00,,,0.00,WUHU216HW,2013-03-08 12:21:00,
2013-03-08 07:26:00,24.9,20.5,0.00,WNW,293,0.0,0.0,83,0.00,,,0.00,WUHU216HW,2013-03-08 12:26:00,
2013-03-08 07:31:00,24.9,20.7,0.00,WNW,293,0.0,0.0,83,0.00,,,0.00,WUHU216HW,2013-03-08 12:31:00,
2013-03-08 07:36:00,25.3,20.8,0.00,SSE,158,0.0,0.0,83,0.00,,,0.00,WUHU216HW,2013-03-08 12:36:00,
2013-03-08 07:41:00,25.5,21.0,0.00,SSE,158,0.0,0.0,83,0.00,,,0.00,WUHU216HW,2013-03-08 12:41:00,
2013-03-08 07:46:00,25.7,21.2,0.00,SSE,158,0.0,0.0,83,0.00,,,0.00,WUHU216HW,2013-03-08 12:46:00,
2013-03-08 07:51:00,25.8,21.3,0.00,SSE,158,0.0,0.0,83,0.00,,,0.00,WUHU216HW,2013-03-08 12:51:00,
2013-03-08 07:56:00,26.2,21.7,0.00,SSE,158,0.0,0.0,83,0.00,,,0.00,WUHU216HW,2013-03-08 12:56:00,
2013-03-08 08:01:00,26.4,21.8,0.00,SSE,158,0.0,0.0,83,0.00,,,0.00,WUHU216HW,2013-03-08 13:01:00,
2013-03-08 08:06:00,26.6,22.0,0.00,SSE,158,0.0,0.0,83,0.00,,,0.00,WUHU216HW,2013-03-08 13:06:00,
2013-03-08 08:11:00,26.7,22.2,0.00,SSE,158,0.0,0.0,83,0.00,,,0.00,WUHU216HW,2013-03-08 13:11:00,
2013-03-08 08:16:00,27.1,22.6,0.00,SSE,158,0.0,0.0,83,0.00,,,0.00,WUHU216HW,2013-03-08 13:16:00,
2013-03-08 08:21:00,27.3,22.7,0.00,SSE,158,0.0,0.0,83,0.00,,,0.00,WUHU216HW,2013-03-08 13:21:00,
2013-03-08 08:26:00,27.6,23.1,0.00,SSE,158,0.0,0.0,83,0.00,,,0.00,WUHU216HW,2013-03-08 13:26:00,
2013-03-08 08:31:00,28.0,23.5,0.00,SSE,158,0.0,0.0,83,0.00,,,0.00,WUHU216HW,2013-03-08 13:31:00,
2013-03-08 08:36:00,28.2,23.6,0.00,SSE,158,0.0,0.0,83,0.00,,,0.00,WUHU216HW,2013-03-08 13:36:00,
2013-03-08 08:41:00,28.2,23.6,0.00,SSE,158,0.0,0.0,83,0.00,,,0.00,WUHU216HW,2013-03-08 13:41:00,
2013-03-08 08:46:00,28.5,24.0,0.00,SSE,158,0.0,0.0,83,0.00,,,0.00,WUHU216HW,2013-03-08 13:46:00,
2013-03-08 08:51:00,28.9,24.4,0.00,SSE,158,0.0,0.0,83,0.00,,,0.00,WUHU216HW,2013-03-08 13:51:00,
2013-03-08 08:57:00,29.1,24.5,0.00,SSE,158,0.0,0.0,83,0.00,,,0.00,WUHU216HW,2013-03-08 13:57:00,
2013-03-08 09:01:00,29.3,24.7,0.00,WNW,293,0.0,0.0,83,0.00,,,0.00,WUHU216HW,2013-03-08 14:01:00,
2013-03-08 09:06:00,29.6,25.1,0.00,WSW,248,0.0,0.0,83,0.00,,,0.00,WUHU216HW,2013-03-08 14:06:00,
2013-03-08 09:11:00,30.0,25.4,0.00,WSW,248,0.0,0.0,83,0.00,,,0.00,WUHU216HW,2013-03-08 14:11:00,
2013-03-08 09:16:00,30.3,25.6,0.00,SSE,158,0.0,0.0,83,0.00,,,0.00,WUHU216HW,2013-03-08 14:16:00,
2013-03-08 09:21:00,30.5,26.0,0.00,South,180,0.0,1.7,82,0.00,,,0.00,WUHU216HW,2013-03-08 14:21:00,
2013-03-08 09:26:00,30.7,25.9,0.00,South,180,0.0,1.7,82,0.00,,,0.00,WUHU216HW,2013-03-08 14:26:00,
2013-03-08 09:31:00,31.1,26.2,0.00,NNW,338,0.0,0.0,82,0.00,,,0.00,WUHU216HW,2013-03-08 14:31:00,
2013-03-08 09:37:00,31.2,26.1,0.00,South,180,0.0,0.0,81,0.00,,,0.00,WUHU216HW,2013-03-08 14:37:00,
2013-03-08 09:42:00,31.6,26.5,0.00,SSE,158,0.0,0.0,81,0.00,,,0.00,WUHU216HW,2013-03-08 14:42:00,
2013-03-08 09:47:00,31.8,26.7,0.00,SSE,158,0.0,0.0,81,0.00,,,0.00,WUHU216HW,2013-03-08 14:47:00,
2013-03-08 09:52:00,32.1,26.7,0.00,SSE,158,0.0,0.0,80,0.00,,,0.00,WUHU216HW,2013-03-08 14:52:00,
2013-03-08 09:57:00,32.3,26.9,0.00,North,0,0.0,0.0,80,0.00,,,0.00,WUHU216HW,2013-03-08 14:57:00,
2013-03-08 10:02:00,32.5,27.0,0.00,WSW,248,0.0,0.0,80,0.00,,,0.00,WUHU216HW,2013-03-08 15:02:00,
2013-03-08 10:07:00,32.9,27.0,0.00,SW,225,0.0,0.0,79,0.00,,,0.00,WUHU216HW,2013-03-08 15:07:00,
2013-03-08 10:12:00,33.2,27.4,0.00,South,180,0.0,0.0,79,0.00,,,0.00,WUHU216HW,2013-03-08 15:12:00,
2013-03-08 10:17:00,33.6,27.4,0.00,South,180,0.0,0.0,78,0.00,,,0.00,WUHU216HW,2013-03-08 15:17:00,
2013-03-08 10:22:00,33.9,27.7,0.00,South,180,0.0,0.0,78,0.00,,,0.00,WUHU216HW,2013-03-08 15:22:00,
2013-03-08 10:27:00,34.3,27.7,0.00,South,180,0.0,3.3,77,0.00,,,0.00,WUHU216HW,2013-03-08 15:27:00,
2013-03-08 10:32:00,34.3,27.7,0.00,SSW,203,0.0,3.3,77,0.00,,,0.00,WUHU216HW,2013-03-08 15:32:00,
2013-03-08 10:37:00,34.8,28.3,0.00,SSE,158,0.0,3.5,77,0.00,,,0.00,WUHU216HW,2013-03-08 15:37:00,
2013-03-08 10:42:00,35.2,28.0,0.00,NNW,338,0.6,3.5,75,0.00,,,0.00,WUHU216HW,2013-03-08 15:42:00,
2013-03-08 10:47:00,35.4,28.2,0.00,SSW,203,0.0,0.6,75,0.00,,,0.00,WUHU216HW,2013-03-08 15:47:00,
2013-03-08 10:52:00,36.1,28.6,0.00,SSE,158,0.0,1.7,74,0.00,,,0.00,WUHU216HW,2013-03-08 15:52:00,
2013-03-08 10:57:00,36.3,28.9,0.00,WSW,248,0.0,1.7,74,0.00,,,0.00,WUHU216HW,2013-03-08 15:57:00,
2013-03-08 11:02:00,36.6,28.8,0.00,North,0,0.0,3.1,73,0.00,,,0.00,WUHU216HW,2013-03-08 16:02:00,
2013-03-08 11:07:00,37.0,29.1,0.00,South,180,2.4,3.1,73,0.00,,,0.00,WUHU216HW,2013-03-08 16:07:00,
2013-03-08 11:12:00,37.2,29.3,0.00,SSE,158,0.0,3.1,73,0.00,,,0.00,WUHU216HW,2013-03-08 16:12:00,
2013-03-08 11:17:00,37.2,29.0,0.00,SSE,158,3.1,3.1,72,0.00,,,0.00,WUHU216HW,2013-03-08 16:17:00,
2013-03-08 11:22:00,37.5,29.0,0.00,SSE,158,0.6,3.1,71,0.00,,,0.00,WUHU216HW,2013-03-08 16:22:00,
2013-03-08 11:27:00,37.9,29.3,0.00,SSE,158,3.3,6.0,71,0.00,,,0.00,WUHU216HW,2013-03-08 16:27:00,
2013-03-08 11:32:00,38.3,29.7,0.00,WSW,248,0.0,6.0,71,0.00,,,0.00,WUHU216HW,2013-03-08 16:32:00,
2013-03-08 11:37:00,38.4,29.8,0.00,NW,315,0.0,4.0,71,0.00,,,0.00,WUHU216HW,2013-03-08 16:37:00,
2013-03-08 11:42:00,38.8,29.8,0.00,South,180,2.9,2.9,70,0.00,,,0.00,WUHU216HW,2013-03-08 16:42:00,
2013-03-08 11:47:00,38.8,29.4,0.00,South,180,0.0,3.3,69,0.00,,,0.00,WUHU216HW,2013-03-08 16:47:00,
2013-03-08 11:52:00,39.0,29.6,0.00,SSW,203,0.0,3.3,69,0.00,,,0.00,WUHU216HW,2013-03-08 16:52:00,
2013-03-08 11:57:00,39.3,29.6,0.00,SW,225,2.2,2.6,68,0.00,,,0.00,WUHU216HW,2013-03-08 16:57:00,
2013-03-08 12:02:00,39.5,29.8,0.00,South,180,4.6,5.3,68,0.00,,,0.00,WUHU216HW,2013-03-08 17:02:00,
2013-03-08 12:07:00,39.9,30.1,0.00,South,180,0.0,6.0,68,0.00,,,0.00,WUHU216HW,2013-03-08 17:07:00,
2013-03-08 12:12:00,40.2,30.1,0.00,South,180,0.0,6.0,67,0.00,,,0.00,WUHU216HW,2013-03-08 17:12:00,
2013-03-08 12:17:00,40.6,30.8,0.00,SSW,203,4.2,4.2,68,0.00,,,0.00,WUHU216HW,2013-03-08 17:17:00,
2013-03-08 12:22:00,41.0,30.8,0.00,SSE,158,0.0,5.8,67,0.00,,,0.00,WUHU216HW,2013-03-08 17:22:00,
2013-03-08 12:27:00,41.1,31.0,0.00,WNW,293,0.0,5.8,67,0.00,,,0.00,WUHU216HW,2013-03-08 17:27:00,
2013-03-08 12:32:00,41.5,30.9,0.00,NW,315,2.9,2.9,66,0.00,,,0.00,WUHU216HW,2013-03-08 17:32:00,
2013-03-08 12:37:00,41.9,31.3,0.00,SSE,158,2.4,4.4,66,0.00,,,0.00,WUHU216HW,2013-03-08 17:37:00,
2013-03-08 12:42:00,42.4,31.4,0.00,WSW,248,0.0,4.4,65,0.00,,,0.00,WUHU216HW,2013-03-08 17:42:00,
2013-03-08 12:47:00,42.4,31.0,0.00,West,270,0.0,6.9,64,0.00,,,0.00,WUHU216HW,2013-03-08 17:47:00,
2013-03-08 12:52:00,42.6,30.8,0.00,NW,315,0.0,6.9,63,0.00,,,0.00,WUHU216HW,2013-03-08 17:52:00,
2013-03-08 12:57:00,42.9,31.5,0.00,SSE,158,0.0,3.5,64,0.00,,,0.00,WUHU216HW,2013-03-08 17:57:00,
2013-03-08 13:02:00,43.3,31.5,0.00,SE,135,0.0,3.5,63,0.00,,,0.00,WUHU216HW,2013-03-08 18:02:00,
2013-03-08 13:07:00,43.7,31.8,0.00,WNW,293,0.0,3.3,63,0.00,,,0.00,WUHU216HW,2013-03-08 18:07:00,
2013-03-08 13:12:00,44.2,32.4,0.00,WSW,248,0.0,5.1,63,0.00,,,0.00,WUHU216HW,2013-03-08 18:12:00,
2013-03-08 13:17:00,44.4,32.2,0.00,SSE,158,2.4,5.1,62,0.00,,,0.00,WUHU216HW,2013-03-08 18:17:00,
2013-03-08 13:22:00,44.9,32.7,0.00,NE,45,0.0,3.1,62,0.00,,,0.00,WUHU216HW,2013-03-08 18:22:00,
2013-03-08 13:27:00,45.1,32.5,0.00,NW,315,0.0,2.0,61,0.00,,,0.00,WUHU216HW,2013-03-08 18:27:00,
2013-03-08 13:32:00,45.1,32.5,0.00,SE,135,2.4,2.9,61,0.00,,,0.00,WUHU216HW,2013-03-08 18:32:00,
2013-03-08 13:37:00,45.5,32.4,0.00,SSE,158,0.0,2.9,60,0.00,,,0.00,WUHU216HW,2013-03-08 18:37:00,
2013-03-08 13:42:00,45.5,32.4,0.00,SSE,158,1.1,3.3,60,0.00,,,0.00,WUHU216HW,2013-03-08 18:42:00,
2013-03-08 13:47:00,45.6,32.1,0.00,WSW,248,0.0,3.8,59,0.00,,,0.00,WUHU216HW,2013-03-08 18:47:00,
2013-03-08 13:52:00,45.6,32.1,0.00,South,180,4.4,4.4,59,0.00,,,0.00,WUHU216HW,2013-03-08 18:52:00,
2013-03-08 13:57:00,45.6,32.1,0.00,SSE,158,0.0,4.4,59,0.00,,,0.00,WUHU216HW,2013-03-08 18:57:00,
2013-03-08 14:02:00,45.6,32.1,0.00,SSW,203,3.5,3.5,59,0.00,,,0.00,WUHU216HW,2013-03-08 19:02:00,
2013-03-08 14:07:00,45.6,32.1,0.00,WNW,293,1.3,6.0,59,0.00,,,0.00,WUHU216HW,2013-03-08 19:07:00,
2013-03-08 14:12:00,45.6,31.7,0.00,NW,315,3.5,6.0,58,0.00,,,0.00,WUHU216HW,2013-03-08 19:12:00,
2013-03-08 14:17:00,45.6,31.2,0.00,WSW,248,0.0,4.9,57,0.00,,,0.00,WUHU216HW,2013-03-08 19:17:00,
2013-03-08 14:22:00,45.6,31.2,0.00,WNW,293,0.0,3.5,57,0.00,,,0.00,WUHU216HW,2013-03-08 19:22:00,
2013-03-08 14:27:00,45.6,31.2,0.00,SSE,158,1.3,3.5,57,0.00,,,0.00,WUHU216HW,2013-03-08 19:27:00,
2013-03-08 14:32:00,45.6,31.2,0.00,SW,225,0.0,2.6,57,0.00,,,0.00,WUHU216HW,2013-03-08 19:32:00,
2013-03-08 14:37:00,45.6,31.2,0.00,SSW,203,2.4,2.6,57,0.00,,,0.00,WUHU216HW,2013-03-08 19:37:00,
2013-03-08 14:42:00,45.6,30.8,0.00,WNW,293,1.3,3.1,56,0.00,,,0.00,WUHU216HW,2013-03-08 19:42:00,
2013-03-08 14:47:00,45.6,30.8,0.00,West,270,0.0,3.1,56,0.00,,,0.00,WUHU216HW,2013-03-08 19:47:00,
2013-03-08 14:52:00,45.6,30.8,0.00,NW,315,3.5,3.5,56,0.00,,,0.00,WUHU216HW,2013-03-08 19:52:00,
2013-03-08 14:57:00,45.6,30.3,0.00,West,270,0.0,3.5,55,0.00,,,0.00,WUHU216HW,2013-03-08 19:57:00,
2013-03-08 15:02:00,45.6,30.3,0.00,South,180,1.1,3.1,55,0.00,,,0.00,WUHU216HW,2013-03-08 20:02:00,
2013-03-08 15:07:00,45.8,30.5,0.00,West,270,0.0,3.1,55,0.00,,,0.00,WUHU216HW,2013-03-08 20:07:00,
2013-03-08 15:12:00,46.0,30.6,0.00,WNW,293,0.0,2.9,55,0.00,,,0.00,WUHU216HW,2013-03-08 20:12:00,
2013-03-08 15:17:00,46.0,30.6,0.00,West,270,2.9,4.2,55,0.00,,,0.00,WUHU216HW,2013-03-08 20:17:00,
2013-03-08 15:22:00,46.0,30.2,0.00,West,270,0.0,4.2,55,0.00,,,0.00,WUHU216HW,2013-03-08 20:22:00,
2013-03-08 15:27:00,45.6,29.9,0.00,West,270,0.0,3.8,54,0.00,,,0.00,WUHU216HW,2013-03-08 20:27:00,
2013-03-08 15:32:00,45.6,30.3,0.00,NW,315,2.0,2.0,55,0.00,,,0.00,WUHU216HW,2013-03-08 20:32:00,
2013-03-08 15:37:00,45.6,30.3,0.00,SSE,158,7.1,7.1,55,0.00,,,0.00,WUHU216HW,2013-03-08 20:37:00,
2013-03-08 15:42:00,45.6,29.9,0.00,SW,225,0.4,7.1,54,0.00,,,0.00,WUHU216HW,2013-03-08 20:42:00,
2013-03-08 15:47:00,45.5,29.7,0.00,West,270,0.0,2.6,54,0.00,,,0.00,WUHU216HW,2013-03-08 20:47:00,
2013-03-08 15:52:00,45.3,29.5,0.00,NW,315,1.5,4.6,54,0.00,,,0.00,WUHU216HW,2013-03-08 20:52:00,
2013-03-08 15:57:00,45.3,29.5,0.00,SSE,158,0.0,4.6,54,0.00,,,0.00,WUHU216HW,2013-03-08 20:57:00,
2013-03-08 16:02:00,45.3,29.1,0.00,NW,315,3.3,5.3,53,0.00,,,0.00,WUHU216HW,2013-03-08 21:02:00,
2013-03-08 16:07:00,45.1,29.4,0.00,NW,315,0.0,5.3,54,0.00,,,0.00,WUHU216HW,2013-03-08 21:07:00,
2013-03-08 16:12:00,45.1,29.4,0.00,ESE,113,0.0,4.2,54,0.00,,,0.00,WUHU216HW,2013-03-08 21:12:00,
2013-03-08 16:17:00,45.1,28.9,0.00,SSE,158,2.6,4.2,53,0.00,,,0.00,WUHU216HW,2013-03-08 21:17:00,
2013-03-08 16:22:00,45.1,28.9,0.00,ENE,68,0.0,2.6,53,0.00,,,0.00,WUHU216HW,2013-03-08 21:22:00,
2013-03-08 16:27:00,44.9,29.2,0.00,South,180,6.2,6.2,54,0.00,,,0.00,WUHU216HW,2013-03-08 21:27:00,
2013-03-08 16:32:00,44.9,29.2,0.00,South,180,0.0,6.2,54,0.00,,,0.00,WUHU216HW,2013-03-08 21:32:00,
2013-03-08 16:37:00,44.9,29.2,0.00,SSE,158,0.0,1.1,54,0.00,,,0.00,WUHU216HW,2013-03-08 21:37:00,
2013-03-08 16:42:00,44.9,29.2,0.00,South,180,0.0,0.0,54,0.00,,,0.00,WUHU216HW,2013-03-08 21:42:00,
2013-03-08 16:47:00,44.7,29.1,0.00,South,180,0.0,2.9,54,0.00,,,0.00,WUHU216HW,2013-03-08 21:47:00,
2013-03-08 16:52:00,44.6,28.9,0.00,West,270,0.0,2.9,54,0.00,,,0.00,WUHU216HW,2013-03-08 21:52:00,
2013-03-08 16:57:00,44.4,28.3,0.00,WNW,293,1.5,2.0,53,0.00,,,0.00,WUHU216HW,2013-03-08 21:57:00,
2013-03-08 17:02:00,44.4,28.7,0.00,WNW,293,0.0,2.9,54,0.00,,,0.00,WUHU216HW,2013-03-08 22:02:00,
2013-03-08 17:07:00,44.4,28.3,0.00,WSW,248,0.0,2.9,53,0.00,,,0.00,WUHU216HW,2013-03-08 22:07:00,
2013-03-08 17:12:00,44.2,28.1,0.00,WSW,248,0.0,1.1,53,0.00,,,0.00,WUHU216HW,2013-03-08 22:12:00,
2013-03-08 17:17:00,44.2,28.1,0.00,NW,315,3.8,3.8,53,0.00,,,0.00,WUHU216HW,2013-03-08 22:17:00,
2013-03-08 17:22:00,44.0,28.4,0.00,West,270,0.0,3.8,54,0.00,,,0.00,WUHU216HW,2013-03-08 22:22:00,
2013-03-08 17:27:00,43.8,28.2,0.00,SE,135,0.0,1.5,54,0.00,,,0.00,WUHU216HW,2013-03-08 22:27:00,
2013-03-08 17:32:00,43.8,28.2,0.00,SSE,158,2.4,2.4,54,0.00,,,0.00,WUHU216HW,2013-03-08 22:32:00,
2013-03-08 17:37:00,43.7,28.0,0.00,WSW,248,0.0,2.4,54,0.00,,,0.00,WUHU216HW,2013-03-08 22:37:00,
2013-03-08 17:42:00,43.5,27.9,0.00,WSW,248,0.0,0.0,54,0.00,,,0.00,WUHU216HW,2013-03-08 22:42:00,
2013-03-08 17:47:00,43.5,27.9,0.00,NW,315,1.1,4.0,54,0.00,,,0.00,WUHU216HW,2013-03-08 22:47:00,
2013-03-08 17:52:00,43.3,27.7,0.00,NW,315,0.0,4.0,54,0.00,,,0.00,WUHU216HW,2013-03-08 22:52:00,
2013-03-08 17:57:00,43.1,27.5,0.00,NNW,338,0.0,2.4,54,0.00,,,0.00,WUHU216HW,2013-03-08 22:57:00,
2013-03-08 18:02:00,42.9,27.8,0.00,SE,135,0.0,3.5,55,0.00,,,0.00,WUHU216HW,2013-03-08 23:02:00,
2013-03-08 18:07:00,42.6,27.5,0.00,SW,225,1.3,3.5,55,0.00,,,0.00,WUHU216HW,2013-03-08 23:07:00,
2013-03-08 18:12:00,42.6,27.5,0.00,NW,315,0.0,2.0,55,0.00,,,0.00,WUHU216HW,2013-03-08 23:12:00,
2013-03-08 18:17:00,42.4,27.3,0.00,NW,315,2.2,2.2,55,0.00,,,0.00,WUHU216HW,2013-03-08 23:17:00,
2013-03-08 18:22:00,42.4,27.3,0.00,South,180,0.0,2.2,55,0.00,,,0.00,WUHU216HW,2013-03-08 23:22:00,
2013-03-08 18:27:00,42.0,27.4,0.00,West,270,0.8,2.0,56,0.00,,,0.00,WUHU216HW,2013-03-08 23:27:00,
2013-03-08 18:32:00,41.9,27.2,0.00,West,270,0.0,0.8,56,0.00,,,0.00,WUHU216HW,2013-03-08 23:32:00,
2013-03-08 18:37:00,41.7,27.0,0.00,NW,315,0.0,1.3,56,0.00,,,0.00,WUHU216HW,2013-03-08 23:37:00,
2013-03-08 18:42:00,41.3,27.1,0.00,NW,315,0.0,1.3,57,0.00,,,0.00,WUHU216HW,2013-03-08 23:42:00,
2013-03-08 18:47:00,41.1,26.5,0.00,NW,315,0.0,0.4,56,0.00,,,0.00,WUHU216HW,2013-03-08 23:47:00,
2013-03-08 18:52:00,41.0,26.8,0.00,WNW,293,0.0,0.4,57,0.00,,,0.00,WUHU216HW,2013-03-08 23:52:00,
2013-03-08 18:57:00,40.8,26.6,0.00,North,0,0.2,0.2,57,0.00,,,0.00,WUHU216HW,2013-03-08 23:57:00,
2013-03-08 19:02:00,40.6,26.5,0.00,North,0,0.0,0.2,57,0.00,,,0.00,WUHU216HW,2013-03-09 00:02:00,
2013-03-08 19:07:00,40.2,26.6,0.00,North,0,0.0,0.0,58,0.00,,,0.00,WUHU216HW,2013-03-09 00:07:00,
2013-03-08 19:12:00,40.1,26.4,0.00,North,0,0.0,0.0,58,0.00,,,0.00,WUHU216HW,2013-03-09 00:12:00,
2013-03-08 19:17:00,39.9,26.2,0.00,North,0,0.0,0.0,58,0.00,,,0.00,WUHU216HW,2013-03-09 00:17:00,
2013-03-08 19:22:00,39.9,26.6,0.00,North,0,0.0,0.0,59,0.00,,,0.00,WUHU216HW,2013-03-09 00:22:00,
2013-03-08 19:27:00,39.5,26.3,0.00,North,0,0.0,0.0,59,0.00,,,0.00,WUHU216HW,2013-03-09 00:27:00,
2013-03-08 19:32:00,39.3,26.1,0.00,NNW,338,0.0,0.0,59,0.00,,,0.00,WUHU216HW,2013-03-09 00:32:00,
2013-03-08 19:37:00,39.0,26.2,0.00,NNW,338,0.0,0.0,60,0.00,,,0.00,WUHU216HW,2013-03-09 00:37:00,
2013-03-08 19:42:00,39.0,25.8,0.00,NNW,338,0.0,0.0,59,0.00,,,0.00,WUHU216HW,2013-03-09 00:42:00,
2013-03-08 19:47:00,38.8,26.0,0.00,NNW,338,0.0,0.0,60,0.00,,,0.00,WUHU216HW,2013-03-09 00:47:00,
2013-03-08 19:52:00,38.6,25.9,0.00,NNW,338,0.0,0.0,60,0.00,,,0.00,WUHU216HW,2013-03-09 00:52:00,
2013-03-08 19:57:00,38.4,25.7,0.00,NNW,338,0.0,0.0,60,0.00,,,0.00,WUHU216HW,2013-03-09 00:57:00,
2013-03-08 20:02:00,38.3,25.9,0.00,NNW,338,0.0,0.0,61,0.00,,,0.00,WUHU216HW,2013-03-09 01:02:00,
2013-03-08 20:07:00,38.3,25.9,0.00,NNW,338,0.0,0.0,61,0.00,,,0.00,WUHU216HW,2013-03-09 01:07:00,
2013-03-08 20:12:00,38.1,25.8,0.00,NNW,338,0.0,0.0,61,0.00,,,0.00,WUHU216HW,2013-03-09 01:12:00,
2013-03-08 20:17:00,37.9,26.0,0.00,NNW,338,0.0,0.0,62,0.00,,,0.00,WUHU216HW,2013-03-09 01:17:00,
2013-03-08 20:22:00,37.9,26.0,0.00,NNW,338,0.0,0.0,62,0.00,,,0.00,WUHU216HW,2013-03-09 01:22:00,
2013-03-08 20:27:00,37.7,25.8,0.00,NNW,338,0.0,0.0,62,0.00,,,0.00,WUHU216HW,2013-03-09 01:27:00,
2013-03-08 20:32:00,37.5,25.7,0.00,NNW,338,0.0,0.0,62,0.00,,,0.00,WUHU216HW,2013-03-09 01:32:00,
2013-03-08 20:37:00,37.4,25.5,0.00,NNW,338,0.0,0.0,62,0.00,,,0.00,WUHU216HW,2013-03-09 01:37:00,
2013-03-08 20:42:00,37.2,25.3,0.00,NNW,338,0.0,0.0,62,0.00,,,0.00,WUHU216HW,2013-03-09 01:42:00,
2013-03-08 20:47:00,37.0,25.2,0.00,NNW,338,0.0,0.0,62,0.00,,,0.00,WUHU216HW,2013-03-09 01:47:00,
2013-03-08 20:52:00,36.6,25.2,0.00,NNW,338,0.0,0.0,63,0.00,,,0.00,WUHU216HW,2013-03-09 01:52:00,
2013-03-08 20:57:00,36.3,24.9,0.00,NNW,338,0.0,0.0,63,0.00,,,0.00,WUHU216HW,2013-03-09 01:57:00,
2013-03-08 21:02:00,36.1,24.7,0.00,NNW,338,0.0,0.0,63,0.00,,,0.00,WUHU216HW,2013-03-09 02:02:00,
2013-03-08 21:07:00,35.7,24.4,0.00,NNW,338,0.0,0.0,63,0.00,,,0.00,WUHU216HW,2013-03-09 02:07:00,
2013-03-08 21:12:00,35.4,24.4,0.00,NNW,338,0.0,0.0,64,0.00,,,0.00,WUHU216HW,2013-03-09 02:12:00,
2013-03-08 21:17:00,35.4,24.4,0.00,NNW,338,0.0,0.0,64,0.00,,,0.00,WUHU216HW,2013-03-09 02:17:00,
2013-03-08 21:22:00,35.2,24.2,0.00,NNW,338,0.0,0.0,64,0.00,,,0.00,WUHU216HW,2013-03-09 02:22:00,
2013-03-08 21:27:00,34.8,23.9,0.00,NNW,338,0.0,0.0,64,0.00,,,0.00,WUHU216HW,2013-03-09 02:27:00,
2013-03-08 21:32:00,34.7,24.0,0.00,NNW,338,0.0,0.0,65,0.00,,,0.00,WUHU216HW,2013-03-09 02:32:00,
2013-03-08 21:37:00,34.7,24.0,0.00,NNW,338,0.0,0.0,65,0.00,,,0.00,WUHU216HW,2013-03-09 02:37:00,
2013-03-08 21:42:00,34.5,23.9,0.00,NNW,338,0.0,0.0,65,0.00,,,0.00,WUHU216HW,2013-03-09 02:42:00,
2013-03-08 21:47:00,34.3,23.7,0.00,NNW,338,0.0,0.0,65,0.00,,,0.00,WUHU216HW,2013-03-09 02:47:00,
2013-03-08 21:52:00,34.3,24.0,0.00,NNW,338,0.0,0.0,66,0.00,,,0.00,WUHU216HW,2013-03-09 02:52:00,
2013-03-08 21:57:00,34.3,24.0,0.00,NNW,338,0.0,0.0,66,0.00,,,0.00,WUHU216HW,2013-03-09 02:57:00,
2013-03-08 22:02:00,34.3,24.0,0.00,NNW,338,0.0,0.0,66,0.00,,,0.00,WUHU216HW,2013-03-09 03:02:00,
2013-03-08 22:07:00,34.3,24.0,0.00,NNW,338,0.0,0.0,66,0.00,,,0.00,WUHU216HW,2013-03-09 03:07:00,
2013-03-08 22:12:00,34.1,23.9,0.00,NNW,338,0.0,0.0,66,0.00,,,0.00,WUHU216HW,2013-03-09 03:12:00,
2013-03-08 22:17:00,33.9,23.7,0.00,NNW,338,0.0,0.0,66,0.00,,,0.00,WUHU216HW,2013-03-09 03:17:00,
2013-03-08 22:22:00,33.8,23.5,0.00,NNW,338,0.0,0.0,66,0.00,,,0.00,WUHU216HW,2013-03-09 03:22:00,
2013-03-08 22:27:00,33.6,23.7,0.00,NNW,338,0.0,0.0,66,0.00,,,0.00,WUHU216HW,2013-03-09 03:27:00,
2013-03-08 22:32:00,33.2,23.4,0.00,NNW,338,0.0,0.0,67,0.00,,,0.00,WUHU216HW,2013-03-09 03:32:00,
2013-03-08 22:37:00,32.9,23.0,0.00,NNW,338,0.0,0.0,67,0.00,,,0.00,WUHU216HW,2013-03-09 03:37:00,
2013-03-08 22:42:00,32.7,22.9,0.00,North,0,0.0,0.0,67,0.00,,,0.00,WUHU216HW,2013-03-09 03:42:00,
2013-03-08 22:47:00,32.7,23.2,0.00,NNW,338,0.0,0.0,68,0.00,,,0.00,WUHU216HW,2013-03-09 03:47:00,
2013-03-08 22:52:00,32.5,23.1,0.00,NNW,338,0.0,0.0,68,0.00,,,0.00,WUHU216HW,2013-03-09 03:52:00,
2013-03-08 22:57:00,32.1,22.8,0.00,NNW,338,0.0,0.0,68,0.00,,,0.00,WUHU216HW,2013-03-09 03:57:00,
2013-03-08 23:02:00,31.8,22.4,0.00,NNW,338,0.0,0.0,68,0.00,,,0.00,WUHU216HW,2013-03-09 04:02:00,
2013-03-08 23:07:00,31.8,22.4,0.00,NNW,338,0.0,0.0,68,0.00,,,0.00,WUHU216HW,2013-03-09 04:07:00,
2013-03-08 23:12:00,31.8,22.4,0.00,NNW,338,0.0,0.0,68,0.00,,,0.00,WUHU216HW,2013-03-09 04:12:00,
2013-03-08 23:17:00,31.2,21.9,0.00,NNW,338,0.0,0.0,68,0.00,,,0.00,WUHU216HW,2013-03-09 04:17:00,
2013-03-08 23:22:00,31.1,22.1,0.00,NNW,338,0.0,0.0,69,0.00,,,0.00,WUHU216HW,2013-03-09 04:22:00,
2013-03-08 23:27:00,30.9,21.9,0.00,NNW,338,0.0,0.0,69,0.00,,,0.00,WUHU216HW,2013-03-09 04:27:00,
2013-03-08 23:32:00,30.7,22.1,0.00,NNW,338,0.0,0.0,70,0.00,,,0.00,WUHU216HW,2013-03-09 04:32:00,
2013-03-08 23:37:00,30.7,22.1,0.00,NNW,338,0.0,0.0,70,0.00,,,0.00,WUHU216HW,2013-03-09 04:37:00,
2013-03-08 23:42:00,30.7,22.1,0.00,NNW,338,0.0,0.0,70,0.00,,,0.00,WUHU216HW,2013-03-09 04:42:00,
2013-03-08 23:47:00,30.5,21.9,0.00,NNW,338,0.0,0.0,70,0.00,,,0.00,WUHU216HW,2013-03-09 04:47:00,
2013-03-08 23:52:00,30.3,22.0,0.00,NNW,338,0.0,0.0,71,0.00,,,0.00,WUHU216HW,2013-03-09 04:52:00,
2013-03-08 23:57:00,30.2,21.8,0.00,NNW,338,0.0,0.0,71,0.00,,,0.00,WUHU216HW,2013-03-09 04:57:00,